Location: Lane
(33.5226°N, 79.8788°W)
Time: 19:36:49
(UTC+00:00)

Explorer 11/Cluster Stage 4 - Pass Details

Date: 03 October 2022
Orbit: 466 x 1247 km, 28.8° (Epoch: 01 December)

Event Time Altitude Azimuth Distance (km) Brightness Sun altitude
Rises 17:16:19 0° 250° (WSW) 4,172 10.5 52.3°
Reaches altitude 10° 17:19:22 10° 246° (WSW) 3,180 10.1 52.2°
Maximum altitude 17:27:10 55° 172° (S) 1,344 10.2 52.1°
Drops below altitude 10° 17:33:57 10° 96° (E) 2,780 9.5 51.8°
Sets 17:36:28 0° 92° (E) 3,618 9.9 51.7°
